,,,PA_Meas_PMT16A,,PR_Meas_QMR101_102,,RH_Meas_QMH101,,SR_Meas_QMS101,,TA_Meas_QMH101,,GenWind,,GenWind,
date,time,status,PA,status,PR,status,RH,status,SR,status,TA,status,DirAvg,status,SpdAvg,
2009-09-07, 00:00:05,VALID,1000.48,VALID,0,VALID,83.9563,VALID,0,VALID,23.5841,VALID,146,VALID,1.47227,
2009-09-07, 00:01:05,VALID,1000.45,VALID,0,VALID,83.8877,VALID,0.112286,VALID,23.5823,VALID,150,VALID,1.61211,
2009-09-07, 00:02:05,VALID,1000.41,VALID,0,VALID,83.8953,VALID,0,VALID,23.5823,VALID,138,VALID,1.61211,
2009-09-07, 00:03:05,VALID,1000.4,VALID,0,VALID,83.9334,VALID,0,VALID,23.5628,VALID,133,VALID,2.00938,
2009-09-07, 00:04:05,VALID,1000.4,VALID,0,VALID,83.9792,VALID,0.112286,VALID,23.5628,VALID,135,VALID,1.83828,
2009-09-07, 00:05:05,VALID,1000.37,VALID,0,VALID,84.0403,VALID,0,VALID,23.5841,VALID,136,VALID,1.75391,
2009-09-07, 00:06:05,VALID,1000.35,VALID,0,VALID,84.1013,VALID,0.112286,VALID,23.5628,VALID,131,VALID,1.77969,
2009-09-07, 00:07:05,VALID,1000.29,VALID,0,VALID,84.1013,VALID,0,VALID,23.5646,VALID,138,VALID,1.56797,
2009-09-07, 00:08:05,VALID,1000.31,VALID,0,VALID,84.3226,VALID,0,VALID,23.5451,VALID,141,VALID,1.79375,
2009-09-07, 00:09:05,VALID,1000.29,VALID,0,VALID,84.3378,VALID,0,VALID,23.5061,VALID,142,VALID,1.45273,
2009-09-07, 00:10:05,VALID,1000.29,VALID,0,VALID,84.4217,VALID,0,VALID,23.4866,VALID,142,VALID,1.75781,
2009-09-07, 00:11:05,VALID,1000.34,VALID,0,VALID,84.4904,VALID,0,VALID,23.4458,VALID,142,VALID,1.67734,
2009-09-07, 00:12:05,VALID,1000.32,VALID,0,VALID,84.2157,VALID,0,VALID,23.4653,VALID,144,VALID,1.50352,
2009-09-07, 00:13:05,VALID,1000.31,VALID,0,VALID,84.0326,VALID,0,VALID,23.4848,VALID,139,VALID,1.27891,
2009-09-07, 00:14:05,VALID,1000.32,VALID,0,VALID,83.9106,VALID,0,VALID,23.5061,VALID,141,VALID,1.23359,
2009-09-07, 00:15:05,VALID,1000.3,VALID,0,VALID,83.8114,VALID,0,VALID,23.5256,VALID,147,VALID,1.32344,
2009-09-07, 00:16:05,VALID,1000.29,VALID,0,VALID,83.6969,VALID,0,VALID,23.5256,VALID,137,VALID,1.8457,
2009-09-07, 00:17:05,VALID,1000.27,VALID,0,VALID,83.4757,VALID,0,VALID,23.5433,VALID,141,VALID,0.955078,
2009-09-07, 00:18:05,VALID,1000.28,VALID,0,VALID,83.4909,VALID,0,VALID,23.5646,VALID,134,VALID,1.28945,
2009-09-07, 00:19:05,VALID,1000.27,VALID,0,VALID,83.4299,VALID,0.112286,VALID,23.5451,VALID,145,VALID,1.63945,
2009-09-07, 00:20:05,VALID,1000.23,VALID,0,VALID,83.3383,VALID,0.112286,VALID,23.5451,VALID,137,VALID,1.28477,
2009-09-07, 00:21:05,VALID,1000.23,VALID,0,VALID,83.3917,VALID,0,VALID,23.5256,VALID,140,VALID,1.45391,
2009-09-07, 00:22:05,VALID,1000.24,VALID,0,VALID,83.2392,VALID,0,VALID,23.5043,VALID,143,VALID,1.20391,
2009-09-07, 00:23:05,VALID,1000.23,VALID,0,VALID,83.2163,VALID,0,VALID,23.5256,VALID,150,VALID,1.17617,
2009-09-07, 00:24:05,VALID,1000.18,VALID,0,VALID,83.1629,VALID,0,VALID,23.5256,VALID,148,VALID,1.14727,
2009-09-07, 00:25:05,VALID,1000.16,VALID,0,VALID,83.0408,VALID,0,VALID,23.5256,VALID,160,VALID,0.959375,
2009-09-07, 00:26:05,VALID,1000.17,VALID,0,VALID,82.8653,VALID,0,VALID,23.5451,VALID,168,VALID,1.42813,
2009-09-07, 00:27:05,VALID,1000.13,VALID,0,VALID,82.6898,VALID,0,VALID,23.5451,VALID,160,VALID,1.23672,
2009-09-07, 00:28:05,VALID,1000.13,VALID,0,VALID,82.5754,VALID,0,VALID,23.5841,VALID,175,VALID,1.42383,
2009-09-07, 00:29:05,VALID,1000.14,VALID,0,VALID,82.3617,VALID,0,VALID,23.6036,VALID,169,VALID,1.54414,
2009-09-07, 00:30:05,VALID,1000.12,VALID,0,VALID,81.9726,VALID,0,VALID,23.6214,VALID,172,VALID,1.52969,
2009-09-07, 00:31:05,VALID,1000.14,VALID,0,VALID,81.5759,VALID,0,VALID,23.6604,VALID,172,VALID,1.40664,
2009-09-07, 00:32:05,VALID,1000.13,VALID,0,VALID,81.3012,VALID,0,VALID,23.7012,VALID,178,VALID,1.52148,
2009-09-07, 00:33:05,VALID,1000.16,VALID,0,VALID,80.9732,VALID,0,VALID,23.7402,VALID,174,VALID,1.58711,
2009-09-07, 00:34:05,VALID,1000.16,VALID,0,VALID,80.7061,VALID,0,VALID,23.7402,VALID,170,VALID,1.42109,
2009-09-07, 00:35:05,VALID,1000.14,VALID,0,VALID,80.4925,VALID,0,VALID,23.7384,VALID,169,VALID,1.29023,
2009-09-07, 00:36:05,VALID,1000.13,VALID,0,VALID,80.378,VALID,0,VALID,23.7597,VALID,168,VALID,1.85859,
2009-09-07, 00:37:05,VALID,1000.15,VALID,0,VALID,80.5001,VALID,0,VALID,23.7579,VALID,170,VALID,1.81289,
2009-09-07, 00:38:05,VALID,1000.13,VALID,0,VALID,80.6985,VALID,0,VALID,23.7988,VALID,149,VALID,2.26563,
2009-09-07, 00:39:05,VALID,1000.09,VALID,0,VALID,80.5917,VALID,0,VALID,23.8183,VALID,142,VALID,1.67188,
2009-09-07, 00:40:05,VALID,1000.06,VALID,0,VALID,80.5688,VALID,0,VALID,23.8573,VALID,150,VALID,1.5918,
2009-09-07, 00:41:05,VALID,1000.08,VALID,0,VALID,80.3704,VALID,0,VALID,23.8768,VALID,156,VALID,1.83008,
2009-09-07, 00:42:05,VALID,1000.06,VALID,0,VALID,80.1721,VALID,0,VALID,23.9159,VALID,163,VALID,1.91055,
2009-09-07, 00:43:05,VALID,1000.03,VALID,0,VALID,79.9813,VALID,0,VALID,23.9354,VALID,168,VALID,2.03125,
2009-09-07, 00:44:05,VALID,1000.05,VALID,0,VALID,79.8592,VALID,0,VALID,23.8945,VALID,163,VALID,1.89414,
2009-09-07, 00:45:05,VALID,1000.03,VALID,0,VALID,79.9432,VALID,0,VALID,23.9159,VALID,163,VALID,1.82891,
2009-09-07, 00:46:05,VALID,999.987,VALID,0,VALID,79.5388,VALID,0,VALID,23.9354,VALID,172,VALID,2.08945,
2009-09-07, 00:47:05,VALID,999.969,VALID,0,VALID,79.2946,VALID,0.112286,VALID,23.914,VALID,167,VALID,1.68672,
2009-09-07, 00:48:05,VALID,999.97,VALID,0,VALID,79.3252,VALID,0,VALID,23.8963,VALID,168,VALID,1.79531,
2009-09-07, 00:49:05,VALID,999.961,VALID,0,VALID,79.3252,VALID,0,VALID,23.836,VALID,177,VALID,1.58789,
2009-09-07, 00:50:05,VALID,999.966,VALID,0,VALID,79.3709,VALID,0,VALID,23.8378,VALID,171,VALID,2.06172,
2009-09-07, 00:51:05,VALID,999.949,VALID,0,VALID,79.5388,VALID,0,VALID,23.8573,VALID,163,VALID,2.05039,
2009-09-07, 00:52:05,VALID,999.938,VALID,0,VALID,79.8745,VALID,0,VALID,23.8183,VALID,162,VALID,2.08203,
2009-09-07, 00:53:05,VALID,999.903,VALID,0,VALID,80.2407,VALID,0,VALID,23.7597,VALID,152,VALID,1.55508,
2009-09-07, 00:54:05,VALID,999.908,VALID,0,VALID,80.7061,VALID,0,VALID,23.6799,VALID,150,VALID,2.10273,
2009-09-07, 00:55:05,VALID,999.909,VALID,0,VALID,80.9121,VALID,0,VALID,23.6604,VALID,155,VALID,1.68672,
2009-09-07, 00:56:05,VALID,999.901,VALID,0,VALID,81.0723,VALID,0,VALID,23.6427,VALID,163,VALID,1.59922,
2009-09-07, 00:57:05,VALID,999.911,VALID,0,VALID,81.202,VALID,0,VALID,23.6036,VALID,167,VALID,1.83477,
2009-09-07, 00:58:05,VALID,999.93,VALID,0,VALID,81.3394,VALID,0,VALID,23.5646,VALID,160,VALID,1.23086,
2009-09-07, 00:59:05,VALID,999.885,VALID,0,VALID,81.5301,VALID,0,VALID,23.5451,VALID,163,VALID,1.68867,
2009-09-07, 01:00:04,VALID,999.884,VALID,0,VALID,81.5225,VALID,0,VALID,23.5451,VALID,153,VALID,1.08008,
2009-09-07, 01:01:04,VALID,999.886,VALID,0,VALID,81.5301,VALID,0,VALID,23.5451,VALID,149,VALID,1.53633,
2009-09-07, 01:02:04,VALID,999.894,VALID,0,VALID,81.553,VALID,0,VALID,23.5469,VALID,146,VALID,1.07539,
2009-09-07, 01:03:04,VALID,999.895,VALID,0,VALID,81.7056,VALID,0,VALID,23.5469,VALID,162,VALID,2.0418,
2009-09-07, 01:04:04,VALID,999.908,VALID,0,VALID,81.5683,VALID,0,VALID,23.5451,VALID,162,VALID,1.35391,
2009-09-07, 01:05:04,VALID,999.902,VALID,0,VALID,81.5301,VALID,0,VALID,23.5646,VALID,163,VALID,1.52773,
2009-09-07, 01:06:04,VALID,999.898,VALID,0,VALID,81.5454,VALID,0,VALID,23.5646,VALID,161,VALID,1.45547,
2009-09-07, 01:07:04,VALID,999.922,VALID,0,VALID,81.4843,VALID,0,VALID,23.5841,VALID,159,VALID,1.39063,
2009-09-07, 01:08:04,VALID,999.882,VALID,0,VALID,81.4843,VALID,0,VALID,23.5841,VALID,167,VALID,1.57187,
2009-09-07, 01:09:04,VALID,999.871,VALID,0,VALID,81.4462,VALID,0,VALID,23.5841,VALID,156,VALID,1.49688,
2009-09-07, 01:10:04,VALID,999.861,VALID,0,VALID,81.553,VALID,0,VALID,23.6232,VALID,160,VALID,1.55273,
2009-09-07, 01:11:04,VALID,999.817,VALID,0,VALID,81.3546,VALID,0,VALID,23.6232,VALID,164,VALID,1.18359,
2009-09-07, 01:12:04,VALID,999.786,VALID,0,VALID,81.5378,VALID,0,VALID,23.6427,VALID,156,VALID,2.04102,
2009-09-07, 01:13:04,VALID,999.787,VALID,0,VALID,81.3852,VALID,0,VALID,23.6427,VALID,160,VALID,1.36289,
2009-09-07, 01:14:04,VALID,999.75,VALID,0,VALID,81.6369,VALID,0,VALID,23.6232,VALID,157,VALID,1.74414,
2009-09-07, 01:15:04,VALID,999.75,VALID,0,VALID,81.5912,VALID,0,VALID,23.6445,VALID,156,VALID,1.26875,
2009-09-07, 01:16:04,VALID,999.738,VALID,0,VALID,81.6827,VALID,0,VALID,23.6427,VALID,161,VALID,1.36289,
2009-09-07, 01:17:04,VALID,999.729,VALID,0,VALID,81.6827,VALID,0,VALID,23.6232,VALID,161,VALID,1.2832,
2009-09-07, 01:18:04,VALID,999.715,VALID,0,VALID,82.0108,VALID,0,VALID,23.6232,VALID,169,VALID,1.75859,
2009-09-07, 01:19:04,VALID,999.701,VALID,0,VALID,81.8658,VALID,0,VALID,23.664,VALID,157,VALID,1.59453,
2009-09-07, 01:20:04,VALID,999.705,VALID,0,VALID,81.8963,VALID,0,VALID,23.6427,VALID,163,VALID,1.35195,
2009-09-07, 01:21:04,VALID,999.716,VALID,0,VALID,81.82,VALID,0,VALID,23.6214,VALID,159,VALID,1.16289,
2009-09-07, 01:22:04,VALID,999.723,VALID,0,VALID,82.1786,VALID,0,VALID,23.6232,VALID,153,VALID,1.29453,
2009-09-07, 01:23:04,VALID,999.707,VALID,0,VALID,82.3312,VALID,0,VALID,23.6036,VALID,163,VALID,1.31797,
2009-09-07, 01:24:04,VALID,999.727,VALID,0,VALID,82.4686,VALID,0,VALID,23.6036,VALID,171,VALID,1.30977,
2009-09-07, 01:25:04,VALID,999.736,VALID,0,VALID,82.5296,VALID,0,VALID,23.6036,VALID,172,VALID,1.49336,
2009-09-07, 01:26:04,VALID,999.723,VALID,0,VALID,82.5372,VALID,0,VALID,23.6232,VALID,179,VALID,1.60156,
2009-09-07, 01:27:04,VALID,999.732,VALID,0,VALID,82.3617,VALID,0,VALID,23.664,VALID,169,VALID,1.33398,
2009-09-07, 01:28:04,VALID,999.698,VALID,0,VALID,82.2702,VALID,0,VALID,23.6427,VALID,161,VALID,1.49609,
2009-09-07, 01:29:04,VALID,999.662,VALID,0,VALID,81.7819,VALID,0,VALID,23.7012,VALID,185,VALID,1.70234,
2009-09-07, 01:30:04,VALID,999.66,VALID,0,VALID,81.141,VALID,0,VALID,23.7597,VALID,187,VALID,1.4707,
2009-09-07, 01:31:04,VALID,999.683,VALID,0,VALID,81.0952,VALID,0,VALID,23.7793,VALID,183,VALID,1.6125,
2009-09-07, 01:32:04,VALID,999.709,VALID,0,VALID,81.2478,VALID,0,VALID,23.8183,VALID,176,VALID,1.55039,
2009-09-07, 01:33:04,VALID,999.666,VALID,0,VALID,81.1257,VALID,0,VALID,23.8378,VALID,172,VALID,1.28867,
2009-09-07, 01:34:04,VALID,999.675,VALID,0,VALID,80.9884,VALID,0,VALID,23.8573,VALID,170,VALID,1.53164,
2009-09-07, 01:35:04,VALID,999.654,VALID,0,VALID,80.7443,VALID,0,VALID,23.7988,VALID,171,VALID,1.59531,
2009-09-07, 01:36:04,VALID,999.644,VALID,0,VALID,80.7824,VALID,0,VALID,23.7402,VALID,172,VALID,1.15352,
2009-09-07, 01:37:04,VALID,999.656,VALID,0,VALID,81.0342,VALID,0,VALID,23.7207,VALID,177,VALID,1.13398,
2009-09-07, 01:38:04,VALID,999.677,VALID,0,VALID,81.3546,VALID,0,VALID,23.7207,VALID,169,VALID,1.15313,
2009-09-07, 01:39:04,VALID,999.666,VALID,0,VALID,81.7438,VALID,0,VALID,23.6817,VALID,168,VALID,1.17109,
2009-09-07, 01:40:04,VALID,999.665,VALID,0,VALID,81.8887,VALID,0,VALID,23.6232,VALID,168,VALID,1.41289,
2009-09-07, 01:41:04,VALID,999.688,VALID,0,VALID,81.5683,VALID,0,VALID,23.6036,VALID,181,VALID,1.40742,
2009-09-07, 01:42:04,VALID,999.684,VALID,0,VALID,81.1792,VALID,0,VALID,23.6036,VALID,219,VALID,1.03281,
2009-09-07, 01:43:04,VALID,999.671,VALID,0,VALID,81.0723,VALID,0,VALID,23.6622,VALID,230,VALID,0.788672,
2009-09-07, 01:44:04,VALID,999.668,VALID,0,VALID,80.7824,VALID,0,VALID,23.6427,VALID,210,VALID,0.79375,
2009-09-07, 01:45:04,VALID,999.694,VALID,0,VALID,80.8663,VALID,0,VALID,23.6427,VALID,210,VALID,0.729688,
2009-09-07, 01:46:04,VALID,999.656,VALID,0,VALID,80.8663,VALID,0,VALID,23.6427,VALID,210,VALID,1.03828,
2009-09-07, 01:47:04,VALID,999.579,VALID,0,VALID,80.935,VALID,0,VALID,23.6622,VALID,225,VALID,0.930859,
2009-09-07, 01:48:04,VALID,999.607,VALID,0,VALID,80.9426,VALID,0,VALID,23.6232,VALID,185,VALID,0.844141,
2009-09-07, 01:49:04,VALID,999.566,VALID,0,VALID,80.8969,VALID,0,VALID,23.5646,VALID,169,VALID,0.770312,
2009-09-07, 01:50:04,VALID,999.547,VALID,0,VALID,81.08,VALID,0,VALID,23.5061,VALID,172,VALID,0.621484,
2009-09-07, 01:51:04,VALID,999.547,VALID,0,VALID,81.2097,VALID,0,VALID,23.4671,VALID,164,VALID,0.698828,
2009-09-07, 01:52:04,VALID,999.56,VALID,0,VALID,80.9426,VALID,0,VALID,23.4688,VALID,161,VALID,0.854688,
2009-09-07, 01:53:04,VALID,999.533,VALID,0,VALID,81.6217,VALID,0,VALID,23.4475,VALID,170,VALID,0.868359,
2009-09-07, 01:54:04,VALID,999.549,VALID,0,VALID,82.3236,VALID,0,VALID,23.4671,VALID,169,VALID,1.16406,
2009-09-07, 01:55:04,VALID,999.533,VALID,0,VALID,82.2702,VALID,0,VALID,23.4866,VALID,172,VALID,0.999219,
2009-09-07, 01:56:04,VALID,999.551,VALID,0,VALID,82.5601,VALID,0,VALID,23.4866,VALID,167,VALID,1.60508,
2009-09-07, 01:57:04,VALID,999.522,VALID,0,VALID,82.7814,VALID,0,VALID,23.5061,VALID,160,VALID,1.33867,
2009-09-07, 01:58:04,VALID,999.483,VALID,0,VALID,82.3999,VALID,0,VALID,23.4866,VALID,134,VALID,0.685938,
2009-09-07, 01:59:04,VALID,999.469,VALID,0,VALID,82.1863,VALID,0,VALID,23.4671,VALID,106,VALID,0.897656,
2009-09-07, 02:00:04,VALID,999.468,VALID,0,VALID,81.6903,VALID,0,VALID,23.4085,VALID,106,VALID,0.227734,
2009-09-07, 02:01:04,VALID,999.5,VALID,0,VALID,82.6593,VALID,0,VALID,23.311,VALID,158,VALID,1.18203,
2009-09-07, 02:02:04,VALID,999.51,VALID,0,VALID,83.3002,VALID,0,VALID,23.2542,VALID,165,VALID,1.20156,
2009-09-07, 02:03:04,VALID,999.472,VALID,0,VALID,83.6054,VALID,0,VALID,23.1744,VALID,170,VALID,0.53125,
2009-09-07, 02:04:04,VALID,999.472,VALID,0,VALID,83.964,VALID,0,VALID,23.1549,VALID,150,VALID,0.442578,
2009-09-07, 02:05:04,VALID,999.489,VALID,0,VALID,84.0632,VALID,0,VALID,23.0964,VALID,150,VALID,0.276172,
2009-09-07, 02:06:04,VALID,999.492,VALID,0,VALID,84.1929,VALID,0,VALID,23.0573,VALID,150,VALID,0.13125,
2009-09-07, 02:07:04,VALID,999.455,VALID,0,VALID,84.4065,VALID,0,VALID,23.0183,VALID,150,VALID,0,
2009-09-07, 02:08:04,VALID,999.525,VALID,0,VALID,84.437,VALID,0,VALID,22.9403,VALID,151,VALID,0.460938,
2009-09-07, 02:09:04,VALID,999.51,VALID,0,VALID,83.9258,VALID,0,VALID,22.8427,VALID,151,VALID,0.028125,
2009-09-07, 02:10:04,VALID,999.494,VALID,0,VALID,84.2539,VALID,0,VALID,22.6867,VALID,151,VALID,0.313281,
2009-09-07, 02:11:04,VALID,999.496,VALID,0,VALID,84.3073,VALID,0,VALID,22.5306,VALID,16,VALID,0.658594,
2009-09-07, 02:12:04,VALID,999.5,VALID,0,VALID,85.5509,VALID,0,VALID,22.3551,VALID,16,VALID,0.617578,
2009-09-07, 02:13:04,VALID,999.51,VALID,0,VALID,86.0697,VALID,0,VALID,22.2771,VALID,16,VALID,0.388281,
2009-09-07, 02:14:04,VALID,999.498,VALID,0,VALID,85.7417,VALID,0,VALID,22.1795,VALID,16,VALID,0.291016,
2009-09-07, 02:15:04,VALID,999.481,VALID,0,VALID,86.9624,VALID,0,VALID,22.0413,VALID,16,VALID,0.361719,
2009-09-07, 02:16:04,VALID,999.493,VALID,0,VALID,87.8703,VALID,0,VALID,22.0235,VALID,16,VALID,0.242578,
2009-09-07, 02:17:04,VALID,999.494,VALID,0,VALID,88.0763,VALID,0,VALID,21.9845,VALID,16,VALID,0.417969,
2009-09-07, 02:18:04,VALID,999.466,VALID,0,VALID,88.29,VALID,0,VALID,21.965,VALID,16,VALID,0.607031,
2009-09-07, 02:19:04,VALID,999.464,VALID,0,VALID,87.9619,VALID,0,VALID,21.848,VALID,16,VALID,0.55,
2009-09-07, 02:20:04,VALID,999.466,VALID,0,VALID,88.9614,VALID,0,VALID,21.7895,VALID,16,VALID,0.316016,
2009-09-07, 02:21:04,VALID,999.468,VALID,0,VALID,89.3963,VALID,0.112286,VALID,21.809,VALID,16,VALID,0.363672,
2009-09-07, 02:22:04,VALID,999.449,VALID,0,VALID,89.3963,VALID,0,VALID,21.809,VALID,16,VALID,0.301953,
2009-09-07, 02:23:04,VALID,999.473,VALID,0,VALID,89.2055,VALID,0,VALID,21.77,VALID,16,VALID,0.282031,
2009-09-07, 02:24:04,VALID,999.47,VALID,0,VALID,88.7096,VALID,0,VALID,21.6725,VALID,16,VALID,0.398047,
2009-09-07, 02:25:04,VALID,999.468,VALID,0,VALID,88.6638,VALID,0,VALID,21.575,VALID,16,VALID,0.507813,
2009-09-07, 02:26:04,VALID,999.437,VALID,0,VALID,89.9761,VALID,0,VALID,21.536,VALID,63,VALID,0.686328,
2009-09-07, 02:27:04,VALID,999.452,VALID,0,VALID,89.2513,VALID,0,VALID,21.497,VALID,98,VALID,0.575781,
2009-09-07, 02:28:04,VALID,999.427,VALID,0,VALID,89.2894,VALID,0,VALID,21.4385,VALID,101,VALID,0.429688,
2009-09-07, 02:29:04,VALID,999.438,VALID,0,VALID,89.2818,VALID,0,VALID,21.38,VALID,135,VALID,0.438672,
2009-09-07, 02:30:04,VALID,999.431,VALID,0,VALID,89.8235,VALID,0,VALID,21.4011,VALID,201,VALID,0.514063,
2009-09-07, 02:31:04,VALID,999.43,VALID,0,VALID,90.1058,VALID,0,VALID,21.4385,VALID,234,VALID,0.463281,
2009-09-07, 02:32:04,VALID,999.438,VALID,0,VALID,90.2813,VALID,0,VALID,21.4775,VALID,254,VALID,0.476953,
2009-09-07, 02:33:04,VALID,999.436,VALID,0,VALID,89.9303,VALID,0.112286,VALID,21.4775,VALID,254,VALID,0.144531,
2009-09-07, 02:34:04,VALID,999.434,VALID,0,VALID,89.854,VALID,0,VALID,21.4791,VALID,254,VALID,0.398438,
2009-09-07, 02:35:04,VALID,999.438,VALID,0,VALID,89.9761,VALID,0,VALID,21.4401,VALID,254,VALID,0.488672,
2009-09-07, 02:36:04,VALID,999.475,VALID,0,VALID,89.8235,VALID,0,VALID,21.419,VALID,254,VALID,0.398438,
2009-09-07, 02:37:04,VALID,999.422,VALID,0,VALID,89.7243,VALID,0,VALID,21.3215,VALID,268,VALID,0.598437,
2009-09-07, 02:38:04,VALID,999.427,VALID,0,VALID,89.6023,VALID,0,VALID,21.263,VALID,301,VALID,0.614062,
2009-09-07, 02:39:04,VALID,999.416,VALID,0,VALID,90.1668,VALID,0,VALID,21.1655,VALID,355,VALID,0.834766,
2009-09-07, 02:40:04,VALID,999.424,VALID,0,VALID,89.5183,VALID,0,VALID,21.068,VALID,13,VALID,0.408594,
2009-09-07, 02:41:04,VALID,999.422,VALID,0,VALID,89.6938,VALID,0,VALID,20.951,VALID,14,VALID,0.377344,
2009-09-07, 02:42:04,VALID,999.388,VALID,0,VALID,90.556,VALID,0.112286,VALID,20.912,VALID,14,VALID,0.642187,
2009-09-07, 02:43:04,VALID,999.364,VALID,0,VALID,89.8311,VALID,0,VALID,20.8161,VALID,14,VALID,0.569922,
2009-09-07, 02:44:04,VALID,999.367,VALID,0,VALID,90.5636,VALID,0,VALID,20.6991,VALID,24,VALID,0.932813,
2009-09-07, 02:45:04,VALID,999.38,VALID,0,VALID,91.998,VALID,0,VALID,20.7576,VALID,25,VALID,0.733594,
2009-09-07, 02:46:04,VALID,999.411,VALID,0,VALID,91.5478,VALID,0,VALID,20.8551,VALID,25,VALID,0.376563,
2009-09-07, 02:47:04,VALID,999.382,VALID,0,VALID,91.029,VALID,0,VALID,20.774,VALID,24,VALID,0.600781,
2009-09-07, 02:48:04,VALID,999.408,VALID,0,VALID,91.235,VALID,0,VALID,20.756,VALID,24,VALID,0.390625,
2009-09-07, 02:49:04,VALID,999.408,VALID,0,VALID,91.2426,VALID,0,VALID,20.7171,VALID,24,VALID,0.835156,
2009-09-07, 02:50:04,VALID,999.416,VALID,0,VALID,91.3342,VALID,0,VALID,20.7171,VALID,24,VALID,0.829687,
2009-09-07, 02:51:04,VALID,999.419,VALID,0,VALID,91.7004,VALID,0,VALID,20.7381,VALID,19,VALID,0.722656,
2009-09-07, 02:52:04,VALID,999.403,VALID,0,VALID,91.998,VALID,0,VALID,20.756,VALID,19,VALID,1.11836,
2009-09-07, 02:53:04,VALID,999.422,VALID,0,VALID,92.0743,VALID,0,VALID,20.8535,VALID,19,VALID,1.47539,
2009-09-07, 02:54:04,VALID,999.396,VALID,0,VALID,91.6012,VALID,0,VALID,20.8145,VALID,18,VALID,1.69805,
2009-09-07, 02:55:04,VALID,999.394,VALID,0,VALID,90.4491,VALID,0,VALID,20.756,VALID,20,VALID,1.74102,
2009-09-07, 02:56:04,VALID,999.423,VALID,0,VALID,90.2203,VALID,0,VALID,20.6196,VALID,28,VALID,1.10117,
2009-09-07, 02:57:04,VALID,999.412,VALID,0,VALID,90.8154,VALID,0,VALID,20.5432,VALID,39,VALID,1.41406,
2009-09-07, 02:58:04,VALID,999.389,VALID,0,VALID,91.235,VALID,0,VALID,20.5026,VALID,36,VALID,1.08398,
2009-09-07, 02:59:04,VALID,999.406,VALID,0,VALID,91.5936,VALID,0,VALID,20.5026,VALID,46,VALID,1.00898,
2009-09-07, 03:00:04,VALID,999.423,VALID,0,VALID,91.6623,VALID,0,VALID,20.5026,VALID,39,VALID,0.570703,
2009-09-07, 03:01:04,VALID,999.422,VALID,0,VALID,91.9522,VALID,0,VALID,20.5627,VALID,38,VALID,0.876562,
2009-09-07, 03:02:04,VALID,999.409,VALID,0,VALID,91.8072,VALID,0,VALID,20.5611,VALID,58,VALID,0.334766,
2009-09-07, 03:03:04,VALID,999.382,VALID,0,VALID,91.9293,VALID,0,VALID,20.5611,VALID,60,VALID,0.505469,
2009-09-07, 03:04:04,VALID,999.406,VALID,0,VALID,92.9593,VALID,0,VALID,20.6781,VALID,63,VALID,1.44102,
2009-09-07, 03:05:04,VALID,999.424,VALID,0,VALID,92.2345,VALID,0,VALID,20.795,VALID,56,VALID,1.09375,
2009-09-07, 03:06:04,VALID,999.398,VALID,0,VALID,91.6699,VALID,0,VALID,20.8535,VALID,56,VALID,0.975781,
2009-09-07, 03:07:04,VALID,999.407,VALID,0,VALID,91.2579,VALID,0,VALID,20.8535,VALID,57,VALID,0.964063,
2009-09-07, 03:08:04,VALID,999.419,VALID,0,VALID,91.1968,VALID,0,VALID,20.8356,VALID,56,VALID,1.12383,
2009-09-07, 03:09:04,VALID,999.419,VALID,0,VALID,91.09,VALID,0,VALID,20.795,VALID,62,VALID,0.900391,
2009-09-07, 03:10:04,VALID,999.426,VALID,0,VALID,91.1892,VALID,0,VALID,20.7366,VALID,49,VALID,0.610156,
2009-09-07, 03:11:04,VALID,999.443,VALID,0,VALID,91.0061,VALID,0,VALID,20.6781,VALID,49,VALID,0.655078,
2009-09-07, 03:12:04,VALID,999.462,VALID,0,VALID,90.9374,VALID,0,VALID,20.6601,VALID,35,VALID,0.563281,
2009-09-07, 03:13:04,VALID,999.437,VALID,0,VALID,91.029,VALID,0,VALID,20.5611,VALID,26,VALID,0.633594,
2009-09-07, 03:14:04,VALID,999.435,VALID,0,VALID,91.235,VALID,0,VALID,20.5221,VALID,19,VALID,0.615234,
2009-09-07, 03:15:04,VALID,999.441,VALID,0,VALID,91.6317,VALID,0,VALID,20.5221,VALID,353,VALID,0.725391,
2009-09-07, 03:16:04,VALID,999.43,VALID,0,VALID,91.5478,VALID,0,VALID,20.5026,VALID,328,VALID,0.417969,
2009-09-07, 03:17:04,VALID,999.422,VALID,0,VALID,91.7233,VALID,0,VALID,20.5237,VALID,343,VALID,0.569531,
2009-09-07, 03:18:04,VALID,999.441,VALID,0,VALID,91.853,VALID,0,VALID,20.4831,VALID,343,VALID,0.605859,
2009-09-07, 03:19:04,VALID,999.444,VALID,0,VALID,91.8606,VALID,0,VALID,20.5237,VALID,1,VALID,0.828125,
2009-09-07, 03:20:04,VALID,999.438,VALID,0,VALID,91.8606,VALID,0,VALID,20.5026,VALID,12,VALID,0.828906,
2009-09-07, 03:21:04,VALID,999.435,VALID,0,VALID,91.5402,VALID,0,VALID,20.4847,VALID,23,VALID,1.20977,
2009-09-07, 03:22:04,VALID,999.436,VALID,0,VALID,91.7385,VALID,0,VALID,20.4246,VALID,36,VALID,1.41328,
2009-09-07, 03:23:04,VALID,999.406,VALID,0,VALID,91.6012,VALID,0,VALID,20.4051,VALID,35,VALID,1.30078,
2009-09-07, 03:24:04,VALID,999.458,VALID,0,VALID,91.6165,VALID,0,VALID,20.3662,VALID,32,VALID,1.23398,
2009-09-07, 03:25:04,VALID,999.455,VALID,0,VALID,91.502,VALID,0,VALID,20.3467,VALID,25,VALID,0.730859,
2009-09-07, 03:26:04,VALID,999.452,VALID,0,VALID,91.586,VALID,0,VALID,20.3272,VALID,38,VALID,1.36914,
2009-09-07, 03:27:04,VALID,999.429,VALID,0,VALID,91.8454,VALID,0,VALID,20.3467,VALID,48,VALID,1.35039,
2009-09-07, 03:28:04,VALID,999.437,VALID,0,VALID,91.7996,VALID,0,VALID,20.3856,VALID,43,VALID,1.27305,
2009-09-07, 03:29:04,VALID,999.449,VALID,0,VALID,91.6851,VALID,0,VALID,20.4051,VALID,46,VALID,1.41172,
2009-09-07, 03:30:04,VALID,999.458,VALID,0,VALID,91.4105,VALID,0,VALID,20.4246,VALID,41,VALID,1.16211,
2009-09-07, 03:31:04,VALID,999.462,VALID,0,VALID,91.0748,VALID,0,VALID,20.3856,VALID,26,VALID,1.01445,
2009-09-07, 03:32:04,VALID,999.47,VALID,0,VALID,90.7849,VALID,0,VALID,20.3482,VALID,13,VALID,0.775,
2009-09-07, 03:33:04,VALID,999.509,VALID,0,VALID,90.884,VALID,0,VALID,20.2882,VALID,16,VALID,0.827344,
2009-09-07, 03:34:04,VALID,999.516,VALID,0,VALID,90.8764,VALID,0,VALID,20.2102,VALID,16,VALID,0.448438,
2009-09-07, 03:35:04,VALID,999.556,VALID,0,VALID,90.8688,VALID,0,VALID,20.1728,VALID,16,VALID,0.870313,
2009-09-07, 03:36:04,VALID,999.546,VALID,0,VALID,91.1892,VALID,0,VALID,20.1127,VALID,16,VALID,0.582031,
2009-09-07, 03:37:04,VALID,999.551,VALID,0,VALID,91.586,VALID,0,VALID,20.1338,VALID,357,VALID,0.763672,
2009-09-07, 03:38:04,VALID,999.556,VALID,0,VALID,91.8911,VALID,0,VALID,20.1728,VALID,359,VALID,0.758203,
2009-09-07, 03:39:04,VALID,999.57,VALID,0,VALID,91.9751,VALID,0,VALID,20.2102,VALID,9,VALID,0.710938,
2009-09-07, 03:40:04,VALID,999.562,VALID,0,VALID,91.8988,VALID,0,VALID,20.2702,VALID,10,VALID,0.607813,
2009-09-07, 03:41:04,VALID,999.597,VALID,0,VALID,91.8148,VALID,0,VALID,20.2882,VALID,28,VALID,0.694141,
2009-09-07, 03:42:04,VALID,999.603,VALID,0,VALID,91.7004,VALID,0,VALID,20.3287,VALID,28,VALID,0.542188,
2009-09-07, 03:43:04,VALID,999.594,VALID,0,VALID,91.5707,VALID,0,VALID,20.3287,VALID,27,VALID,0.51875,
2009-09-07, 03:44:04,VALID,999.59,VALID,0,VALID,91.5478,VALID,0,VALID,20.3287,VALID,26,VALID,0.565625,
2009-09-07, 03:45:04,VALID,999.599,VALID,0,VALID,91.5097,VALID,0,VALID,20.3467,VALID,26,VALID,0.634375,